Location: Rounton
(54.4000°N, 1.3500°W)
Time: 02:40:55
(UTC+00:00)

Vanguard 3 - Pass Details

Date: 30 November 2021
Orbit: 508 x 3260 km, 33.3° (Epoch: 19 January)

Event Time Altitude Azimuth Distance (km) Brightness Sun altitude
Rises 04:51:29 0° 222° (SW) 7,221 11.6 -26.5°
Reaches altitude 10° 04:57:38 10° 212° (SSW) 6,130 11.3 -25.6°
Maximum altitude 05:11:30 27° 165° (SSE) 4,270 10.9 -23.6°
Drops below altitude 10° 05:22:06 10° 116° (ESE) 4,647 12.0 -22.1°
Sets 05:25:54 0° 104° (ESE) 5,255 12.8 -21.5°
